Location: Dehesa de la Cepeda
(40.6574°N, 4.3013°W)
Time: 19:57:21
(UTC+00:00)

Cosmos 1812 Rocket - Pass Details

Date: 05 July 2020
Orbit: 605 x 633 km, 82.5° (Epoch: 05 August)

Event Time Altitude Azimuth Distance (km) Brightness Sun altitude
Rises 20:17:22 0° 2° (N) 2,875 7.5 -5.0°
Reaches altitude 10° 20:19:48 10° 13° (NNE) 1,964 6.5 -5.3°
Maximum altitude 20:23:41 32° 76° (ENE) 1,057 4.5 -5.9°
Drops below altitude 10° 20:27:32 10° 140° (SE) 1,947 5.5 -6.5°
Enters shadow 20:28:10 - 144° (SE) 2,177 5.7 -6.6°
